User: anonymous   Login
Location: Lobos
(35.3000°S, 59.0940°W)
Time: 23:50:50
(UTC-03:00)
Language:

PRISM - Orbit

View from above orbital plane
View from above orbital plane
View from above satellite
View from above satellite

Ground track
Ground track

The orbit data is extracted from the following two-line orbital elements,

1 33493U 09002B   20328.85690682  .00001277  00000-0  11564-3 0  9999
2 33493  98.1611 275.9034 0013968 246.2401 113.7354 14.97251692643560
Epoch (UTC): 23 November 2020 20:33:56
Eccentricity: 0.0013968
inclination: 98.1611°
perigee height: 565 km
apogee height: 585 km
right ascension of ascending node: 275.9034°
argument of perigee: 246.2401°
revolutions per day: 14.97251692
mean anomaly at epoch: 113.7354°
orbit number at epoch: 64356

The dashed part of the orbit path shows where the satellite is in the earth's shadow,  

DLR